Time,TemperatureF,DewpointF,PressureIn,WindDirection,WindDirectionDegrees,WindSpeedMPH,WindSpeedGustMPH,Humidity,HourlyPrecipIn,Conditions,Clouds,dailyrainin,SoftwareType,DateUTC
2013-08-17 00:00:00,64.3,62.2,29.93,South,180,0.0,1.0,93,0.00,,---,0.00,VWS V14.01,2013-08-17 07:00:00,
2013-08-17 00:13:00,64.2,63.0,29.93,South,181,0.0,1.0,94,0.00,,,0.00,weatherlink.com 1.10,2013-08-17 07:13:00,
2013-08-17 00:15:00,64.2,62.4,29.93,South,180,0.0,1.0,94,0.00,,---,0.00,VWS V14.01,2013-08-17 07:15:00,
2013-08-17 00:28:00,64.1,62.0,29.93,South,181,0.0,1.0,94,0.00,,,0.00,weatherlink.com 1.10,2013-08-17 07:28:00,
2013-08-17 00:30:00,64.1,62.3,29.93,South,180,0.0,1.0,94,0.00,,---,0.00,VWS V14.01,2013-08-17 07:30:00,
2013-08-17 00:43:00,64.3,63.0,29.92,South,181,0.0,1.0,95,0.00,,,0.00,weatherlink.com 1.10,2013-08-17 07:43:00,
2013-08-17 00:45:00,64.3,62.8,29.92,South,180,0.0,1.0,95,0.00,,---,0.00,VWS V14.01,2013-08-17 07:45:00,
2013-08-17 00:58:00,64.3,63.0,29.92,South,181,0.0,1.0,95,0.00,,,0.00,weatherlink.com 1.10,2013-08-17 07:58:00,
2013-08-17 01:00:00,64.3,62.8,29.92,South,180,0.0,1.0,95,0.00,,---,0.00,VWS V14.01,2013-08-17 08:00:00,
2013-08-17 01:13:00,64.1,63.0,29.92,South,181,0.0,2.0,95,0.00,,,0.00,weatherlink.com 1.10,2013-08-17 08:13:00,
2013-08-17 01:15:00,64.2,62.7,29.92,South,180,0.0,2.0,95,0.00,,---,0.00,VWS V14.01,2013-08-17 08:15:00,
2013-08-17 01:28:00,64.0,63.0,29.91,South,181,0.0,2.0,95,0.00,,,0.00,weatherlink.com 1.10,2013-08-17 08:28:00,
2013-08-17 01:30:00,64.0,62.5,29.91,South,180,0.0,2.0,95,0.00,,---,0.00,VWS V14.01,2013-08-17 08:30:00,
2013-08-17 01:43:00,63.9,63.0,29.91,South,181,1.0,1.0,95,0.00,,,0.00,weatherlink.com 1.10,2013-08-17 08:43:00,
2013-08-17 01:45:00,63.9,62.4,29.92,South,180,0.0,2.0,95,0.00,,---,0.00,VWS V14.01,2013-08-17 08:45:00,
2013-08-17 01:58:00,63.7,62.0,29.91,South,181,0.0,1.0,95,0.00,,,0.00,weatherlink.com 1.10,2013-08-17 08:58:00,
2013-08-17 02:00:00,63.7,62.2,29.92,South,180,0.0,1.0,95,0.00,,---,0.00,VWS V14.01,2013-08-17 09:00:00,
2013-08-17 02:13:00,63.4,62.0,29.91,South,181,0.0,0.0,95,0.00,,,0.00,weatherlink.com 1.10,2013-08-17 09:13:00,
2013-08-17 02:15:00,63.4,62.0,29.91,South,180,0.0,0.0,95,0.00,,---,0.00,VWS V14.01,2013-08-17 09:15:00,
2013-08-17 02:28:00,63.1,62.0,29.91,South,181,0.0,0.0,95,0.00,,,0.00,weatherlink.com 1.10,2013-08-17 09:28:00,
2013-08-17 02:30:00,63.1,61.7,29.91,South,180,0.0,0.0,95,0.00,,---,0.00,VWS V14.01,2013-08-17 09:30:00,
2013-08-17 02:44:00,62.9,62.0,29.91,South,181,2.0,2.0,95,0.00,,,0.00,weatherlink.com 1.10,2013-08-17 09:44:00,
2013-08-17 02:45:00,62.9,61.8,29.91,South,180,0.0,1.0,96,0.00,,---,0.00,VWS V14.01,2013-08-17 09:45:00,
2013-08-17 02:59:00,63.1,62.0,29.91,South,181,0.0,1.0,96,0.00,,,0.00,weatherlink.com 1.10,2013-08-17 09:59:00,
2013-08-17 03:00:00,63.1,61.9,29.91,South,180,0.0,2.0,96,0.00,,---,0.00,VWS V14.01,2013-08-17 10:00:00,
2013-08-17 03:14:00,63.2,62.0,29.91,South,183,0.0,4.0,96,0.00,,,0.00,weatherlink.com 1.10,2013-08-17 10:14:00,
2013-08-17 03:15:00,63.2,62.0,29.91,SSW,202,0.0,4.0,96,0.00,,---,0.00,VWS V14.01,2013-08-17 10:15:00,
2013-08-17 03:29:00,63.2,62.0,29.91,South,188,0.0,3.0,96,0.00,,,0.00,weatherlink.com 1.10,2013-08-17 10:29:00,
2013-08-17 03:30:00,63.3,62.1,29.91,South,180,0.0,4.0,96,0.00,,---,0.00,VWS V14.01,2013-08-17 10:30:00,
2013-08-17 03:44:00,63.1,62.0,29.91,South,188,0.0,1.0,96,0.00,,,0.00,weatherlink.com 1.10,2013-08-17 10:44:00,
2013-08-17 03:45:00,63.1,61.9,29.91,South,180,0.0,2.0,96,0.00,,---,0.00,VWS V14.01,2013-08-17 10:45:00,
2013-08-17 03:59:00,62.9,62.0,29.90,South,188,0.0,3.0,96,0.00,,,0.00,weatherlink.com 1.10,2013-08-17 10:59:00,
2013-08-17 04:00:00,62.9,61.8,29.90,South,180,0.0,3.0,96,0.00,,---,0.00,VWS V14.01,2013-08-17 11:00:00,
2013-08-17 04:14:00,62.7,62.0,29.90,South,188,1.0,3.0,97,0.00,,,0.00,weatherlink.com 1.10,2013-08-17 11:14:00,
2013-08-17 04:15:00,62.7,61.8,29.90,South,180,0.0,2.0,97,0.00,,---,0.00,VWS V14.01,2013-08-17 11:15:00,
2013-08-17 04:29:00,62.5,62.0,29.90,South,188,0.0,3.0,97,0.00,,,0.00,weatherlink.com 1.10,2013-08-17 11:29:00,
2013-08-17 04:30:00,62.5,61.6,29.90,South,180,0.0,3.0,97,0.00,,---,0.00,VWS V14.01,2013-08-17 11:30:00,
2013-08-17 04:44:00,62.3,62.0,29.90,South,188,0.0,2.0,97,0.00,,,0.00,weatherlink.com 1.10,2013-08-17 11:44:00,
2013-08-17 04:45:00,62.3,61.4,29.90,South,180,0.0,2.0,97,0.00,,---,0.00,VWS V14.01,2013-08-17 11:45:00,
2013-08-17 04:59:00,62.2,61.0,29.90,South,188,1.0,4.0,97,0.00,,,0.00,weatherlink.com 1.10,2013-08-17 11:59:00,
2013-08-17 05:00:00,62.3,61.4,29.90,South,180,1.0,4.0,97,0.00,,---,0.00,VWS V14.01,2013-08-17 12:00:00,
2013-08-17 05:14:00,62.3,62.0,29.89,South,188,1.0,3.0,97,0.00,,,0.00,weatherlink.com 1.10,2013-08-17 12:14:00,
2013-08-17 05:15:00,62.3,61.4,29.90,South,180,0.0,3.0,97,0.00,,---,0.00,VWS V14.01,2013-08-17 12:15:00,
2013-08-17 05:29:00,62.2,61.0,29.89,South,188,0.0,2.0,97,0.00,,,0.00,weatherlink.com 1.10,2013-08-17 12:29:00,
2013-08-17 05:30:00,62.2,61.3,29.90,South,180,0.0,2.0,97,0.00,,---,0.00,VWS V14.01,2013-08-17 12:30:00,
2013-08-17 05:44:00,62.2,61.0,29.90,South,190,0.0,3.0,97,0.00,,,0.00,weatherlink.com 1.10,2013-08-17 12:44:00,
2013-08-17 05:45:00,62.2,61.3,29.90,South,180,0.0,3.0,97,0.00,,---,0.00,VWS V14.01,2013-08-17 12:45:00,
2013-08-17 05:59:00,62.3,62.0,29.90,South,190,0.0,1.0,98,0.00,,,0.00,weatherlink.com 1.10,2013-08-17 12:59:00,
2013-08-17 06:00:00,62.2,61.6,29.90,South,180,0.0,2.0,98,0.00,,---,0.00,VWS V14.01,2013-08-17 13:00:00,
2013-08-17 06:14:00,62.5,62.0,29.91,WSW,238,1.0,3.0,98,0.00,,,0.00,weatherlink.com 1.10,2013-08-17 13:14:00,
2013-08-17 06:15:00,62.4,61.8,29.91,WSW,248,0.0,3.0,98,0.00,,---,0.00,VWS V14.01,2013-08-17 13:15:00,
2013-08-17 06:29:00,62.4,62.0,29.91,SSW,200,0.0,5.0,98,0.00,,,0.00,weatherlink.com 1.10,2013-08-17 13:29:00,
2013-08-17 06:30:00,62.4,61.8,29.91,WSW,248,0.0,5.0,98,0.00,,---,0.00,VWS V14.01,2013-08-17 13:30:00,
2013-08-17 06:44:00,62.5,62.0,29.91,SSW,200,0.0,2.0,98,0.00,,,0.00,weatherlink.com 1.10,2013-08-17 13:44:00,
2013-08-17 06:45:00,62.5,61.9,29.91,SSW,202,0.0,3.0,98,0.00,,---,0.00,VWS V14.01,2013-08-17 13:45:00,
2013-08-17 06:59:00,62.6,62.0,29.91,SSW,200,0.0,1.0,98,0.00,,,0.00,weatherlink.com 1.10,2013-08-17 13:59:00,
2013-08-17 07:00:00,62.6,62.0,29.91,SSW,202,0.0,2.0,98,0.00,,---,0.00,VWS V14.01,2013-08-17 14:00:00,
2013-08-17 07:14:00,62.8,62.0,29.92,SSW,200,0.0,1.0,98,0.00,,,0.00,weatherlink.com 1.10,2013-08-17 14:14:00,
2013-08-17 07:15:00,62.8,62.2,29.92,SSW,202,0.0,1.0,98,0.00,,---,0.00,VWS V14.01,2013-08-17 14:15:00,
2013-08-17 07:29:00,63.0,63.0,29.92,SSW,213,0.0,2.0,98,0.00,,,0.00,weatherlink.com 1.10,2013-08-17 14:29:00,
2013-08-17 07:30:00,63.0,62.4,29.92,SSW,202,0.0,2.0,98,0.00,,---,0.00,VWS V14.01,2013-08-17 14:30:00,
2013-08-17 07:44:00,63.2,63.0,29.93,SW,234,0.0,2.0,98,0.00,,,0.00,weatherlink.com 1.10,2013-08-17 14:44:00,
2013-08-17 07:45:00,63.2,62.6,29.92,SW,225,0.0,2.0,98,0.00,,---,0.00,VWS V14.01,2013-08-17 14:45:00,
2013-08-17 07:59:00,63.3,63.0,29.93,SW,234,0.0,3.0,98,0.00,,,0.00,weatherlink.com 1.10,2013-08-17 14:59:00,
2013-08-17 08:00:00,63.3,62.7,29.93,SW,225,0.0,3.0,98,0.00,,---,0.00,VWS V14.01,2013-08-17 15:00:00,
2013-08-17 08:14:00,63.7,63.0,29.93,SW,234,1.0,3.0,98,0.00,,,0.00,weatherlink.com 1.10,2013-08-17 15:14:00,
2013-08-17 08:15:00,63.7,63.1,29.93,SW,225,0.0,3.0,98,0.00,,---,0.00,VWS V14.01,2013-08-17 15:15:00,
2013-08-17 08:29:00,64.0,63.0,29.93,SW,234,1.0,3.0,97,0.00,,,0.00,weatherlink.com 1.10,2013-08-17 15:29:00,
2013-08-17 08:30:00,64.0,63.1,29.92,SW,225,1.0,3.0,97,0.00,,---,0.00,VWS V14.01,2013-08-17 15:30:00,
2013-08-17 08:44:00,64.5,63.0,29.93,SW,234,0.0,2.0,96,0.00,,,0.00,weatherlink.com 1.10,2013-08-17 15:44:00,
2013-08-17 08:45:00,64.5,63.3,29.93,SW,225,0.0,2.0,96,0.00,,---,0.00,VWS V14.01,2013-08-17 15:45:00,
2013-08-17 08:59:00,65.7,64.0,29.92,SW,234,1.0,2.0,95,0.00,,,0.00,weatherlink.com 1.10,2013-08-17 15:59:00,
2013-08-17 09:00:00,65.6,64.1,29.92,SW,225,0.0,2.0,95,0.00,,---,0.00,VWS V14.01,2013-08-17 16:00:00,
2013-08-17 09:14:00,67.5,65.0,29.92,South,184,2.0,3.0,92,0.00,,,0.00,weatherlink.com 1.10,2013-08-17 16:14:00,
2013-08-17 09:15:00,67.3,64.9,29.92,SW,225,0.0,2.0,92,0.00,,---,0.00,VWS V14.01,2013-08-17 16:15:00,
2013-08-17 09:29:00,69.4,65.0,29.93,South,186,0.0,5.0,86,0.00,,,0.00,weatherlink.com 1.10,2013-08-17 16:29:00,
2013-08-17 09:30:00,69.3,64.9,29.93,South,180,1.0,5.0,86,0.00,,---,0.00,VWS V14.01,2013-08-17 16:30:00,
2013-08-17 09:44:00,70.4,65.0,29.92,SSW,209,0.0,5.0,84,0.00,,,0.00,weatherlink.com 1.10,2013-08-17 16:44:00,
2013-08-17 09:45:00,70.3,64.9,29.92,South,180,1.0,5.0,83,0.00,,---,0.00,VWS V14.01,2013-08-17 16:45:00,
2013-08-17 09:59:00,71.1,65.0,29.93,SSW,194,4.0,7.0,82,0.00,,,0.00,weatherlink.com 1.10,2013-08-17 16:59:00,
2013-08-17 10:00:00,71.1,65.3,29.92,SSW,202,2.0,6.0,82,0.00,,---,0.00,VWS V14.01,2013-08-17 17:00:00,
2013-08-17 10:14:00,71.1,66.0,29.93,South,175,4.0,6.0,84,0.00,,,0.00,weatherlink.com 1.10,2013-08-17 17:14:00,
2013-08-17 10:15:00,71.1,66.0,29.92,SSW,202,2.0,7.0,84,0.00,,---,0.00,VWS V14.01,2013-08-17 17:15:00,
2013-08-17 10:29:00,70.8,66.0,29.93,SSW,202,2.0,6.0,84,0.00,,,0.00,weatherlink.com 1.10,2013-08-17 17:29:00,
2013-08-17 10:30:00,70.8,65.4,29.92,SW,225,2.0,6.0,83,0.00,,---,0.00,VWS V14.01,2013-08-17 17:30:00,
2013-08-17 10:44:00,70.6,66.0,29.92,SW,217,1.0,7.0,84,0.00,,,0.00,weatherlink.com 1.10,2013-08-17 17:44:00,
2013-08-17 10:45:00,70.6,65.5,29.92,SSW,202,3.0,8.0,84,0.00,,---,0.00,VWS V14.01,2013-08-17 17:45:00,
2013-08-17 10:59:00,71.1,66.0,29.92,South,187,9.0,9.0,83,0.00,,,0.00,weatherlink.com 1.10,2013-08-17 17:59:00,
2013-08-17 11:00:00,71.0,65.6,29.92,SSW,202,3.0,7.0,83,0.00,,---,0.00,VWS V14.01,2013-08-17 18:00:00,
2013-08-17 11:14:00,71.4,66.0,29.91,South,180,5.0,7.0,82,0.00,,,0.00,weatherlink.com 1.10,2013-08-17 18:14:00,
2013-08-17 11:15:00,71.4,65.3,29.91,SSW,202,3.0,9.0,81,0.00,,---,0.00,VWS V14.01,2013-08-17 18:15:00,
2013-08-17 11:29:00,70.9,66.0,29.91,South,180,3.0,10.0,83,0.00,,,0.00,weatherlink.com 1.10,2013-08-17 18:29:00,
2013-08-17 11:30:00,70.8,65.0,29.91,WSW,248,4.0,10.0,82,0.00,,---,0.00,VWS V14.01,2013-08-17 18:30:00,
2013-08-17 11:44:00,71.0,65.0,29.91,SW,223,5.0,10.0,81,0.00,,,0.00,weatherlink.com 1.10,2013-08-17 18:44:00,
2013-08-17 11:45:00,71.1,65.0,29.91,SSW,202,4.0,10.0,81,0.00,,---,0.00,VWS V14.01,2013-08-17 18:45:00,
2013-08-17 11:59:00,71.9,65.0,29.90,SSW,192,1.0,10.0,80,0.00,,,0.00,weatherlink.com 1.10,2013-08-17 18:59:00,
2013-08-17 12:00:00,71.8,65.7,29.90,SSW,202,4.0,10.0,81,0.00,,---,0.00,VWS V14.01,2013-08-17 19:00:00,
2013-08-17 12:14:00,72.3,65.0,29.90,SW,223,4.0,11.0,78,0.00,,,0.00,weatherlink.com 1.10,2013-08-17 19:14:00,
2013-08-17 12:15:00,72.3,65.1,29.90,SSW,202,4.0,11.0,78,0.00,,---,0.00,VWS V14.01,2013-08-17 19:15:00,
2013-08-17 12:30:00,71.9,65.0,29.89,SW,221,2.0,9.0,79,0.00,,,0.00,weatherlink.com 1.10,2013-08-17 19:30:00,
2013-08-17 12:45:00,72.5,66.0,29.88,SSW,211,7.0,7.0,80,0.00,,,0.00,weatherlink.com 1.10,2013-08-17 19:45:00,
2013-08-17 13:00:00,73.6,66.0,29.88,South,190,5.0,8.0,77,0.00,,,0.00,weatherlink.com 1.10,2013-08-17 20:00:00,
2013-08-17 13:15:00,74.3,66.0,29.88,SSW,198,4.0,10.0,74,0.00,,,0.00,weatherlink.com 1.10,2013-08-17 20:15:00,
2013-08-17 13:30:00,74.4,66.0,29.87,South,187,6.0,11.0,74,0.00,,,0.00,weatherlink.com 1.10,2013-08-17 20:30:00,
2013-08-17 13:45:00,74.9,65.0,29.86,SW,219,3.0,9.0,72,0.00,,,0.00,weatherlink.com 1.10,2013-08-17 20:45:00,
2013-08-17 14:00:00,74.9,66.0,29.86,South,188,6.0,10.0,73,0.00,,,0.00,weatherlink.com 1.10,2013-08-17 21:00:00,
2013-08-17 14:15:00,75.8,65.0,29.85,South,190,10.0,11.0,70,0.00,,,0.00,weatherlink.com 1.10,2013-08-17 21:15:00,
2013-08-17 14:30:00,77.0,65.0,29.84,WSW,253,3.0,9.0,67,0.00,,,0.00,weatherlink.com 1.10,2013-08-17 21:30:00,
2013-08-17 14:45:00,78.7,65.0,29.84,SSW,206,4.0,9.0,64,0.00,,,0.00,weatherlink.com 1.10,2013-08-17 21:45:00,
2013-08-17 15:00:00,79.6,65.0,29.83,South,184,8.0,10.0,62,0.00,,,0.00,weatherlink.com 1.10,2013-08-17 22:00:00,
2013-08-17 15:15:00,80.5,65.0,29.82,SSW,199,6.0,9.0,60,0.00,,,0.00,weatherlink.com 1.10,2013-08-17 22:15:00,
2013-08-17 15:30:00,80.0,65.0,29.82,SSW,203,7.0,11.0,60,0.00,,,0.00,weatherlink.com 1.10,2013-08-17 22:30:00,
2013-08-17 15:45:00,79.3,66.0,29.81,SSW,203,2.0,11.0,64,0.00,,,0.00,weatherlink.com 1.10,2013-08-17 22:45:00,
2013-08-17 16:00:00,78.8,66.0,29.81,SSW,208,3.0,12.0,64,0.00,,,0.00,weatherlink.com 1.10,2013-08-17 23:00:00,
2013-08-17 16:15:00,79.0,66.0,29.80,South,186,5.0,12.0,64,0.00,,,0.00,weatherlink.com 1.10,2013-08-17 23:15:00,
2013-08-17 16:30:00,79.3,66.0,29.80,SW,220,7.0,9.0,63,0.00,,,0.00,weatherlink.com 1.10,2013-08-17 23:30:00,
2013-08-17 16:45:00,79.5,66.0,29.80,SW,222,6.0,8.0,63,0.00,,,0.00,weatherlink.com 1.10,2013-08-17 23:45:00,
2013-08-17 17:00:00,78.5,65.0,29.80,South,181,6.0,10.0,64,0.00,,,0.00,weatherlink.com 1.10,2013-08-18 00:00:00,
2013-08-17 17:15:00,77.6,65.0,29.80,SSW,192,3.0,10.0,66,0.00,,,0.00,weatherlink.com 1.10,2013-08-18 00:15:00,
2013-08-17 17:30:00,76.3,65.0,29.80,WSW,257,3.0,9.0,68,0.00,,,0.00,weatherlink.com 1.10,2013-08-18 00:30:00,
2013-08-17 17:45:00,76.0,65.0,29.79,SSW,196,4.0,9.0,69,0.00,,,0.00,weatherlink.com 1.10,2013-08-18 00:45:00,
2013-08-17 18:00:00,75.0,65.0,29.79,SSW,213,3.0,10.0,70,0.00,,,0.00,weatherlink.com 1.10,2013-08-18 01:00:00,
2013-08-17 18:15:00,73.0,64.0,29.79,SW,216,2.0,12.0,73,0.00,,,0.00,weatherlink.com 1.10,2013-08-18 01:15:00,
2013-08-17 18:30:00,71.5,64.0,29.79,SSW,211,4.0,9.0,76,0.00,,,0.00,weatherlink.com 1.10,2013-08-18 01:30:00,
2013-08-17 18:45:00,70.2,63.0,29.79,South,173,5.0,9.0,79,0.00,,,0.00,weatherlink.com 1.10,2013-08-18 01:45:00,
2013-08-17 19:00:00,69.2,63.0,29.80,South,175,5.0,9.0,81,0.00,,,0.00,weatherlink.com 1.10,2013-08-18 02:00:00,
2013-08-17 19:15:00,67.5,63.0,29.80,South,184,1.0,7.0,84,0.00,,,0.00,weatherlink.com 1.10,2013-08-18 02:15:00,
2013-08-17 19:30:00,66.4,62.0,29.80,SW,229,0.0,7.0,86,0.00,,,0.00,weatherlink.com 1.10,2013-08-18 02:30:00,
2013-08-17 19:45:00,65.8,62.0,29.81,South,188,1.0,6.0,88,0.00,,,0.00,weatherlink.com 1.10,2013-08-18 02:45:00,
2013-08-17 20:00:00,65.4,62.1,29.81,SSW,202,1.0,6.0,89,0.00,,---,0.00,VWS V14.01,2013-08-18 03:00:00,
2013-08-17 20:01:00,65.4,62.0,29.80,SSW,212,1.0,5.0,89,0.00,,,0.00,weatherlink.com 1.10,2013-08-18 03:01:00,
2013-08-17 20:15:00,65.1,62.1,29.81,SSW,202,2.0,6.0,90,0.00,,---,0.00,VWS V14.01,2013-08-18 03:15:00,
2013-08-17 20:16:00,65.0,62.0,29.81,South,186,1.0,6.0,90,0.00,,,0.00,weatherlink.com 1.10,2013-08-18 03:16:00,
2013-08-17 20:30:00,64.7,62.0,29.81,South,180,1.0,5.0,91,0.00,,---,0.00,VWS V14.01,2013-08-18 03:30:00,
2013-08-17 20:31:00,64.7,62.0,29.81,SSW,207,0.0,5.0,91,0.00,,,0.00,weatherlink.com 1.10,2013-08-18 03:31:00,
2013-08-17 20:45:00,64.3,61.6,29.82,SSW,202,1.0,5.0,91,0.00,,---,0.00,VWS V14.01,2013-08-18 03:45:00,
2013-08-17 20:46:00,64.2,62.0,29.82,South,184,1.0,3.0,91,0.00,,,0.00,weatherlink.com 1.10,2013-08-18 03:46:00,
2013-08-17 21:00:00,63.9,61.5,29.82,South,180,1.0,4.0,92,0.00,,---,0.00,VWS V14.01,2013-08-18 04:00:00,
2013-08-17 21:01:00,63.9,62.0,29.82,SSW,201,0.0,4.0,92,0.00,,,0.00,weatherlink.com 1.10,2013-08-18 04:01:00,
2013-08-17 21:15:00,63.6,61.2,29.83,SSW,202,1.0,3.0,92,0.00,,---,0.00,VWS V14.01,2013-08-18 04:15:00,
2013-08-17 21:16:00,63.6,61.0,29.83,SSE,164,0.0,3.0,92,0.00,,,0.00,weatherlink.com 1.10,2013-08-18 04:16:00,
2013-08-17 21:30:00,63.4,61.3,29.83,SSE,158,0.0,2.0,93,0.00,,---,0.00,VWS V14.01,2013-08-18 04:30:00,
2013-08-17 21:31:00,63.4,61.0,29.83,SSE,151,0.0,2.0,93,0.00,,,0.00,weatherlink.com 1.10,2013-08-18 04:31:00,
2013-08-17 21:45:00,63.3,61.2,29.84,SSE,158,0.0,2.0,93,0.00,,---,0.00,VWS V14.01,2013-08-18 04:45:00,
2013-08-17 21:46:00,63.2,61.0,29.84,South,175,1.0,3.0,93,0.00,,,0.00,weatherlink.com 1.10,2013-08-18 04:46:00,
2013-08-17 22:00:00,63.2,61.2,29.83,South,180,0.0,3.0,93,0.00,,---,0.00,VWS V14.01,2013-08-18 05:00:00,
2013-08-17 22:01:00,63.2,61.0,29.84,South,175,1.0,2.0,93,0.00,,,0.00,weatherlink.com 1.10,2013-08-18 05:01:00,
2013-08-17 22:15:00,63.2,61.5,29.84,South,180,0.0,2.0,94,0.00,,---,0.00,VWS V14.01,2013-08-18 05:15:00,
2013-08-17 22:16:00,63.2,62.0,29.84,South,175,2.0,2.0,94,0.00,,,0.00,weatherlink.com 1.10,2013-08-18 05:16:00,
2013-08-17 22:30:00,63.2,61.5,29.84,South,180,1.0,3.0,94,0.00,,---,0.00,VWS V14.01,2013-08-18 05:30:00,
2013-08-17 22:31:00,63.2,62.0,29.84,South,175,1.0,3.0,94,0.00,,,0.00,weatherlink.com 1.10,2013-08-18 05:31:00,
2013-08-17 22:45:00,63.1,61.3,29.84,South,180,1.0,3.0,94,0.00,,---,0.00,VWS V14.01,2013-08-18 05:45:00,
2013-08-17 22:46:00,63.1,61.0,29.84,South,191,0.0,3.0,94,0.00,,,0.00,weatherlink.com 1.10,2013-08-18 05:46:00,
2013-08-17 23:00:00,63.1,61.7,29.84,South,180,0.0,3.0,95,0.00,,---,0.00,VWS V14.01,2013-08-18 06:00:00,
2013-08-17 23:01:00,63.0,62.0,29.84,South,190,0.0,3.0,95,0.00,,,0.00,weatherlink.com 1.10,2013-08-18 06:01:00,
2013-08-17 23:15:00,62.9,61.5,29.84,South,180,0.0,2.0,95,0.00,,---,0.00,VWS V14.01,2013-08-18 06:15:00,
2013-08-17 23:16:00,62.9,62.0,29.84,South,190,0.0,2.0,95,0.00,,,0.00,weatherlink.com 1.10,2013-08-18 06:16:00,
2013-08-17 23:30:00,62.8,61.3,29.84,South,180,0.0,1.0,95,0.00,,---,0.00,VWS V14.01,2013-08-18 06:30:00,
2013-08-17 23:31:00,62.7,61.0,29.84,South,190,0.0,1.0,95,0.00,,,0.00,weatherlink.com 1.10,2013-08-18 06:31:00,
2013-08-17 23:45:00,62.7,61.2,29.84,South,180,0.0,2.0,95,0.00,,---,0.00,VWS V14.01,2013-08-18 06:45:00,
2013-08-17 23:46:00,62.7,61.0,29.84,South,190,0.0,0.0,95,0.00,,,0.00,weatherlink.com 1.10,2013-08-18 06:46:00,